Reading, PA

6:23 PM EDT on July 29, 2016 (GMT -0400)
Reading Regional-Spaatz

Weather History for KRDG - March, 2014

Change the Weather History Date:

Saturday, March 15, 2014

  Actual Average Record
Temperature  
Mean Temperature 47 °F 41 °F  
Max Temperature 57 °F 50 °F 80 °F (1990)
Min Temperature 37 °F 31 °F 7 °F (1993)
Degree Days  
Heating Degree Days 18 24  
Month to date heating degree days 488 400  
Since 1 July heating degree days 4798 4442  
Cooling Degree Days 0 0  
Month to date cooling degree days 0 0  
Year to date cooling degree days 0 0  
Moisture  
Dew Point 26 °F    
Average Humidity 44    
Maximum Humidity 59    
Minimum Humidity 29    
Precipitation  
Precipitation T in 0.12 in 1.99 in (1986)
Month to date precipitation 0.35 1.44  
Year to date precipitation 7.03 6.97  
Sea Level Pressure  
Sea Level Pressure 29.88 in    
Wind  
Wind Speed 12 mph (West)    
Max Wind Speed 28 mph    
Max Gust Speed 35 mph    
Visibility 10 miles    
Events Rain    
T = Trace of Precipitation, MM = Missing Value Source: NWS Daily Summary

Daily Weather History Graph

Daily Weather History Graph

Search for Another Location

Airport or City:

Trip Planner

Search our weather history database for the weather conditions in past years. The results will help you decide how hot, cold, wet, or windy it might be!

Date:

Astronomy

Mar. 15, 2014 Rise Set
Actual Time 7:15 AM EDT 7:10 PM EDT
Civil Twilight 6:48 AM EDT 7:37 PM EDT
Nautical Twilight 6:16 AM EDT 8:09 PM EDT
Astronomical Twilight 5:44 AM EDT 8:41 PM EDT
Moon 6:27 PM EDT (3/15) 6:26 AM EDT (3/15)
Length of Visible Light 12h 49m
Length of Day
11h 55m
Waxing Gibbous, 99% of the Moon is Illuminated
Mar 15
Waxing Gibbous
Mar 16
Full
Mar 23
Last Quarter
Mar 30
New
Apr 7
First Quarter

Hourly Weather History & Observations

Time (EDT) Temp. Windchill Dew Point Humidity Pressure Visibility Wind Dir Wind Speed Gust Speed Precip Events Conditions
12:54 AM 46.9 °F - 24.1 °F 41% 29.83 in 10.0 mi SSW 13.8 mph 20.7 mph N/A   Overcast
1:54 AM 46.9 °F - 24.1 °F 41% 29.80 in 10.0 mi South 11.5 mph 24.2 mph N/A   Overcast
2:54 AM 46.9 °F - 24.1 °F 41% 29.78 in 10.0 mi SSW 15.0 mph 21.9 mph N/A   Overcast
3:54 AM 46.9 °F - 24.1 °F 41% 29.77 in 10.0 mi SSW 12.7 mph - N/A   Partly Cloudy
4:54 AM 44.1 °F 39.5 °F 25.0 °F 47% 29.77 in 10.0 mi SSW 8.1 mph - N/A   Scattered Clouds
5:54 AM 46.9 °F - 24.1 °F 41% 29.78 in 10.0 mi West 5.8 mph - N/A   Overcast
6:54 AM 45.0 °F 41.8 °F 26.1 °F 48% 29.81 in 10.0 mi South 5.8 mph - 0.00 in Rain Light Rain
7:54 AM 44.1 °F 41.5 °F 28.0 °F 53% 29.81 in 10.0 mi South 4.6 mph - 0.00 in   Overcast
8:54 AM 46.9 °F - 30.9 °F 54% 29.81 in 10.0 mi SSW 6.9 mph - N/A   Mostly Cloudy
9:54 AM 51.1 °F - 30.9 °F 46% 29.83 in 10.0 mi WSW 9.2 mph - N/A   Mostly Cloudy
10:54 AM 54.0 °F - 32.0 °F 43% 29.84 in 10.0 mi West 16.1 mph 25.3 mph N/A   Scattered Clouds
11:54 AM 55.9 °F - 27.0 °F 33% 29.86 in 10.0 mi WNW 17.3 mph 24.2 mph N/A   Mostly Cloudy
12:54 PM 57.0 °F - 28.9 °F 34% 29.87 in 10.0 mi NW 21.9 mph 27.6 mph N/A   Partly Cloudy
1:54 PM 55.9 °F - 30.0 °F 37% 29.87 in 10.0 mi NW 24.2 mph 31.1 mph N/A   Clear
2:54 PM 55.9 °F - 27.0 °F 33% 29.87 in 10.0 mi WNW 16.1 mph 31.1 mph N/A   Clear
3:54 PM 55.0 °F - 24.1 °F 30% 29.88 in 10.0 mi West 18.4 mph 31.1 mph N/A   Clear
4:54 PM 55.0 °F - 24.1 °F 30% 29.89 in 10.0 mi West 17.3 mph 23.0 mph N/A   Partly Cloudy
5:54 PM 54.0 °F - 23.0 °F 30% 29.91 in 10.0 mi WNW 16.1 mph 26.5 mph N/A   Partly Cloudy
6:54 PM 50.0 °F - 24.1 °F 36% 29.96 in 10.0 mi WNW 13.8 mph - N/A   Clear
7:54 PM 46.9 °F - 23.0 °F 39% 29.99 in 10.0 mi NW 13.8 mph - N/A   Clear
8:54 PM 46.9 °F - 21.9 °F 37% 30.02 in 10.0 mi NW 4.6 mph - N/A   Clear
9:54 PM 44.1 °F 40.8 °F 21.9 °F 42% 30.04 in 10.0 mi NW 5.8 mph - N/A   Clear
10:54 PM 43.0 °F 38.8 °F 25.0 °F 49% 30.06 in 10.0 mi North 6.9 mph - N/A   Clear
11:54 PM 39.0 °F 31.4 °F 26.1 °F 60% 30.07 in 10.0 mi WNW 12.7 mph - N/A   Clear